Regional Weather Roundup
Issued by NWS New Orleans/Baton Rouge, LA

Home | Current Version | Previous Version | Graphics & Text | Print | Product List | Glossary On
Versions: 1 2 3 4 5 6 7 8 9 10 11 12 13 14 15 16 17 18 19 20 21 22 23 24 25 26 27 28 29 30 31 32 33 34 35 36 37 38 39 40 41 42 43 44 45 46 47 48 49 50
956
ASUS44 KLIX 162205
RWRLIX
NEW ORLEANS REGIONAL WEATHER ROUNDUP
NATIONAL WEATHER SERVICE NEW ORLEANS LA
500 PM CDT TUE SEP 16 2014

NOTE: "FAIR" INDICATES FEW OR NO CLOUDS BELOW 12,000 FEET WITH NO
      SIGNIFICANT WEATHER AND/OR OBSTRUCTIONS TO VISIBILITY.
      SKY/WX - SKY CONDITION AND SIGNIFICANT WEATHER.
      TMP - AIR TEMPERATURE.     DP    - DEWPOINT TEMPERATURE.
      RH  - RELATIVE HUMIDITY.   PRES  - PRESSURE.
      HI  - HEAT INDEX.          WCI   - WIND CHILL INDEX.

*  THESE STATIONS ARE NOT NWS OR FAA STATIONS AND ARE NOT UNDER
   NWS QUALITY CONTROL.

LAZ038-040-048-061>063-065>067-069-162300-
SOUTHEAST LOUISIANA

CITY           SKY/WX    TMP DP  RH WIND       PRES   REMARKS
N.O. AUDUBON     N/A     79  78  98 MISG        N/A
N.O. INTL ARPT LGT RAIN  76  73  91 SW6       30.00R
N.O. LAKEFRONT LGT RAIN  80  76  87 SW9       30.00R
N.O. DOWNTOWN* MOCLDY    81  73  78 SW7       30.01R
SLIDELL        CLOUDY    76  73  91 S5        29.98F THUNDER
BATON ROUGE    CLOUDY    78  74  87 N8        30.00R
BOOTHVILLE     PTSUNNY   82  77  84 SW14      29.99F
BELLE CHASSE   LGT RAIN  80  74  81 SW8       30.00R
BOGALUSA*        N/A     79  69  72 S12       29.99S
GALLIANO*      NOT AVBL
NEW ROADS*       N/A     77  72  85 S3        30.00R
GONZALES*      TSTM      73  73 100 S8        30.00S
HAMMOND*       CLOUDY    77  72  83 SW6       30.01R
HOUMA*         PTSUNNY   82  72  69 SW8       30.01R
PORT FOURCHON* NOT AVBL

$$

MSZ070-080>082-162300-
SOUTHERN MISSISSIPPI

CITY           SKY/WX    TMP DP  RH WIND       PRES   REMARKS
MCCOMB         PTSUNNY   89  68  49 NE3       29.97F
GULFPORT       CLOUDY    74  71  91 N8        29.99R
BILOXI         NOT AVBL
PASCAGOULA     CLOUDY    81  77  88 SW3       29.97S
STENNIS ARPT*  PTSUNNY   73  70  88 CALM      29.99F

$$

COASTAL OBSERVATIONS
LAKE AND NEARSHORE STATIONS

STATION/POSITION TIME  TEMP    WIND        PRES    WAVE
                       AIR SEA DIR/SP/G            HT/PER
                 (UTC) (F)     (DEG/KT/KT) (MB)    (FT/S)
PASCAGOULA       2200   84     230/  7/ 12 1014.8
WAVELAND YACHT   2200   75     300/  3/  8 1015.0
GRAND ISLE       2200   82 86  250/  9/ 14 1016.8
SOUTHWEST PASS   2200   82 91  260/ 18/ 20 1016.3
NEW CANAL        2200   80 83  240/  6/  8 1016.3
SHELL BEACH      2200   82 80  240/  9/ 11 1015.5

OFFSHORE STATIONS

STATION/POSITION TIME  TEMP    WIND        PRES    WAVE
                       AIR SEA DIR/SP/G            HT/PER
                 (UTC) (F)     (DEG/KT/KT) (MB)    (FT/S)
64 S DAUPHIN ISL 2147   81 85  250/ 14/ 16 1015.6    2/ 4

$$




USA.gov is the U.S. government's official web portal to all federal, state and local government web resources and services.